[[{"header":{"parameterUnit":"m.s-1","parameterCategory":1,"la1":30.2991,"la2":30.254,"lo1":-89.0895,"lo2":-89.0444,"dy":0.0017,"dx":0.0017,"nx":28,"ny":28,"refTime":"2026-02-17T03:00:00:Z","depth":0,"parameterNumber":2,"parameterNumberName":"U-component_of_WINDS"},"data":[0,0,0,0,0,0,0,0,0,0,0,0,0,0,0,0,0,0,0,0,0,0,0,0,0,0,0,0,0,0,0,0,0,0,0,0,0,0,0,0,0,0,0,0,0,0,0,0,0,0,0,0,0,0,0,0,0,0,-0.5639,-0.564,0,-0.5716,-0.5717,-0.5717,-0.5769,-0.5769,-0.577,-0.577,-0.5852,-0.5854,-0.5856,0,0,0,0,0,0,0,0,0,0,0,0,0,-0.5542,-0.5543,-0.5639,-0.564,-0.5641,-0.5716,-0.5717,-0.5718,-0.5769,-0.5769,-0.577,-0.577,-0.5852,-0.5854,-0.5856,0,0,0,0,0,0,0,0,0,0,0,0,0,-0.5598,-0.5544,-0.5639,-0.5676,-0.568,-0.5715,-0.5717,-0.5718,-0.5769,-0.5769,-0.577,-0.577,-0.5851,-0.5854,-0.5856,-0.5863,0,0,-0.5865,-0.5866,0,0,0,0,0,0,0,0,-0.5594,-0.5601,-0.5669,-0.5673,-0.5678,-0.5733,-0.5712,-0.5767,-0.5769,-0.5735,-0.577,-0.577,-0.5813,-0.5819,-0.5832,-0.5867,-0.5871,-0.5865,-0.5867,-0.5868,-0.5869,0,0,0,0,0,0,0,-0.559,-0.5598,-0.567,-0.567,-0.5675,-0.5689,-0.5698,-0.5723,-0.577,-0.5738,-0.5742,-0.575,-0.5815,-0.5829,-0.5834,-0.5872,-0.5865,-0.5868,-0.5869,-0.587,-0.5917,-0.5916,0,0,0,0,0,0,-0.558,-0.5595,-0.5667,-0.5672,-0.5636,-0.5691,-0.57,-0.5715,-0.577,-0.5779,-0.5749,-0.5752,-0.5824,-0.5831,-0.5837,-0.5849,-0.5868,-0.5871,-0.5872,-0.5917,-0.5916,-0.5916,0,0,0,0,0,0,-0.5578,-0.5586,-0.5664,-0.5634,-0.5645,-0.5692,-0.5708,-0.5716,-0.573,-0.5778,-0.5788,-0.5755,-0.5825,-0.5833,-0.5856,-0.5852,-0.5872,-0.5875,-0.5918,-0.5917,-0.5916,-0.5871,0,0,0,0,0,0,-0.5575,-0.5585,-0.5587,-0.5634,-0.5647,-0.568,-0.5708,-0.5717,-0.5734,-0.5739,-0.5786,-0.5794,-0.5826,-0.5852,-0.5859,-0.5856,-0.5877,-0.5918,-0.5917,-0.5916,-0.5873,-0.5869,-0.5865,0,0,0,0,0,-0.5571,-0.5573,-0.5587,-0.5596,-0.565,-0.568,-0.5688,-0.5722,-0.5734,-0.5737,-0.5768,-0.5793,-0.5851,-0.5853,-0.5862,-0.586,-0.5919,-0.5918,-0.5917,-0.5875,-0.587,-0.5866,0,0,0,0,0,0,-0.5526,-0.558,-0.5596,-0.5613,-0.5641,-0.5689,-0.5694,-0.5716,-0.5743,-0.5746,-0.5789,-0.58,-0.5818,-0.5842,-0.5843,-0.587,-0.5888,-0.5889,-0.5853,-0.5849,-0.5845,-0.5839,-0.5879,0,0,0,0,0,-0.5518,-0.5536,-0.5583,-0.5593,-0.5606,-0.5647,-0.5662,-0.5686,-0.5718,-0.5731,-0.5763,-0.5794,-0.582,-0.5836,-0.5862,-0.5877,-0.5888,-0.588,-0.5876,-0.5873,-0.5873,-0.5882,-0.5879,-0.5913,-0.5913,-0.5913,0,0,-0.5501,-0.5533,-0.5542,-0.5584,-0.5609,-0.5628,-0.5657,-0.5676,-0.5691,-0.5734,-0.5757,-0.5782,-0.582,-0.5838,-0.5848,-0.5859,-0.5866,-0.5871,-0.5868,-0.587,-0.5881,-0.5878,-0.5875,-0.5912,-0.5912,-0.5912,0,0,-0.5481,-0.5507,-0.5517,-0.5541,-0.5578,-0.5605,-0.5608,-0.5652,-0.567,-0.5693,-0.5725,-0.5744,-0.5787,-0.5813,-0.5831,-0.5819,-0.5843,-0.5827,-0.5807,-0.5815,-0.5813,-0.5811,-0.5806,-0.5804,-0.5827,-0.5827,-0.5827,0,-0.5456,-0.5485,-0.5521,-0.5537,-0.5555,-0.5593,-0.5604,-0.5627,-0.5671,-0.5682,-0.5693,-0.5747,-0.5776,-0.58,-0.5797,-0.5811,-0.5816,-0.5822,-0.581,-0.5808,-0.5807,-0.5803,-0.5801,-0.5825,-0.5825,-0.5825,-0.5825,0,-0.5453,-0.5472,-0.5477,-0.5516,-0.5535,-0.5549,-0.5587,-0.5602,-0.5624,-0.565,-0.5674,-0.5709,-0.5742,-0.575,-0.5773,-0.5778,-0.5784,-0.5801,-0.5821,-0.5801,-0.5798,-0.5797,-0.5821,-0.5822,-0.5823,-0.5823,0,0,-0.5407,-0.5464,-0.5466,-0.5484,-0.5527,-0.5543,-0.5559,-0.559,-0.5602,-0.5631,-0.5646,-0.5681,-0.5697,-0.5718,-0.5745,-0.5752,-0.574,-0.577,-0.5771,-0.5763,-0.5748,-0.5734,-0.5732,-0.5756,-0.5756,-0.5756,-0.5745,0,-0.5393,-0.5422,-0.5454,-0.5472,-0.549,-0.5526,-0.554,-0.5569,-0.5594,-0.5614,-0.5643,-0.5667,-0.5687,-0.57,-0.5709,-0.574,-0.5738,-0.5741,-0.5772,-0.5772,-0.576,-0.573,-0.5716,-0.5703,-0.5744,-0.5744,-0.5744,0,-0.538,-0.5406,-0.5425,-0.5465,-0.5474,-0.5486,-0.5517,-0.5536,-0.5569,-0.5587,-0.5609,-0.5637,-0.5657,-0.5673,-0.5702,-0.5703,-0.5717,-0.5734,-0.5735,-0.5739,-0.5756,-0.5734,-0.57,-0.5698,-0.5743,-0.5743,-0.5743,0,-0.5344,-0.5383,-0.54,-0.5414,-0.5462,-0.5469,-0.549,-0.5524,-0.554,-0.5568,-0.5579,-0.5609,-0.5625,-0.5649,-0.5684,-0.5693,-0.5708,-0.5728,-0.5724,-0.5723,-0.5726,-0.5725,-0.5694,-0.5735,-0.5735,-0.5735,-0.5735,0,-0.5325,-0.5336,-0.5384,-0.5394,-0.5407,-0.5444,-0.5457,-0.5481,-0.551,-0.5526,-0.556,-0.5575,-0.562,-0.5641,-0.5669,-0.5688,-0.5696,-0.5711,-0.5718,-0.5708,-0.5706,-0.5718,-0.572,-0.5735,-0.5735,-0.5735,-0.5735,0,-0.5287,-0.532,-0.534,-0.5383,-0.5394,-0.5401,-0.5439,-0.5451,-0.5477,-0.5497,-0.5504,-0.5547,-0.5573,-0.561,-0.5648,-0.5667,-0.5682,-0.5693,-0.5669,-0.5674,-0.5668,-0.5668,-0.5644,-0.5642,-0.5684,-0.5683,-0.5683,0,-0.5273,-0.5281,-0.5324,-0.5336,-0.5355,-0.5375,-0.5391,-0.5428,-0.5444,-0.5482,-0.549,-0.5518,-0.5542,-0.5582,-0.5617,-0.5646,-0.5659,-0.5649,-0.5664,-0.5653,-0.5659,-0.5658,-0.5659,-0.5645,-0.5644,-0.5644,-0.5643,0,-0.5243,-0.5259,-0.528,-0.5307,-0.5325,-0.5348,-0.5373,-0.5382,-0.5425,-0.5441,-0.5467,-0.5485,-0.5523,-0.5551,-0.5584,-0.5608,-0.5633,-0.5638,-0.5639,-0.5628,-0.5614,-0.5621,-0.5659,-0.5639,-0.5639,-0.5639,-0.564,-0.564,-0.5217,-0.5226,-0.5257,-0.5279,-0.5301,-0.5324,-0.5337,-0.5364,-0.5385,-0.5417,-0.5439,-0.5463,-0.5497,-0.5544,-0.5566,-0.5587,-0.5597,-0.5598,-0.5598,-0.5598,-0.5594,-0.561,-0.5593,-0.5593,-0.5593,-0.5594,-0.5594,0,-0.5189,-0.521,-0.523,-0.5263,-0.5281,-0.5301,-0.533,-0.5344,-0.5364,-0.5392,-0.5415,-0.5445,-0.5472,-0.5508,-0.5538,-0.5548,-0.556,-0.5555,-0.5554,-0.5559,-0.5583,-0.5579,-0.5544,-0.5544,-0.5544,-0.5544,-0.5544,-0.5544,-0.5176,-0.5192,-0.5211,-0.5238,-0.5261,-0.5283,-0.5298,-0.5319,-0.5341,-0.5372,-0.5394,-0.5417,-0.5449,-0.5481,-0.5507,-0.5517,-0.5527,-0.5517,-0.5531,-0.5553,-0.5557,-0.5562,-0.5558,-0.5519,-0.5519,-0.5505,-0.5505,-0.5505]},{"header":{"parameterUnit":"m.s-1","parameterCategory":1,"la1":30.2991,"la2":30.254,"lo1":-89.0895,"lo2":-89.0444,"dy":0.0017,"dx":0.0017,"nx":28,"ny":28,"refTime":"2026-02-17T03:00:00:Z","depth":0,"parameterNumber":3,"parameterNumberName":"V-component_of_WINDS"},"data":[0,0,0,0,0,0,0,0,0,0,0,0,0,0,0,0,0,0,0,0,0,0,0,0,0,0,0,0,0,0,0,0,0,0,0,0,0,0,0,0,0,0,0,0,0,0,0,0,0,0,0,0,0,0,0,0,0,0,3.569,3.5691,0,3.5801,3.5802,3.5803,3.5822,3.5821,3.582,3.582,3.5931,3.5935,3.5939,0,0,0,0,0,0,0,0,0,0,0,0,0,3.5492,3.5495,3.569,3.5691,3.5692,3.5801,3.5802,3.5804,3.5822,3.5821,3.582,3.5819,3.593,3.5935,3.5939,0,0,0,0,0,0,0,0,0,0,0,0,0,3.5588,3.5496,3.5689,3.5715,3.5718,3.58,3.5802,3.5804,3.5823,3.5821,3.582,3.5819,3.5929,3.5934,3.594,3.6004,0,0,3.5958,3.596,0,0,0,0,0,0,0,0,3.5582,3.5595,3.571,3.5713,3.5717,3.5796,3.5773,3.5871,3.5823,3.5783,3.5819,3.5818,3.5887,3.5896,3.592,3.6009,3.6014,3.5958,3.5962,3.5964,3.5966,0,0,0,0,0,0,0,3.5576,3.559,3.5734,3.5711,3.5716,3.572,3.5732,3.5792,3.5842,3.5786,3.5788,3.5801,3.5889,3.5915,3.5923,3.6015,3.5958,3.5963,3.5967,3.5969,3.6163,3.6165,0,0,0,0,0,0,3.5565,3.5585,3.573,3.5737,3.5645,3.5725,3.5738,3.5772,3.5841,3.585,3.5802,3.5801,3.5906,3.5916,3.5927,3.6008,3.5964,3.5969,3.5973,3.6162,3.6164,3.6166,0,0,0,0,0,0,3.556,3.5577,3.5726,3.5661,3.568,3.573,3.5768,3.5775,3.5801,3.5853,3.5862,3.5819,3.5905,3.5919,3.5985,3.6012,3.5972,3.5977,3.616,3.6162,3.6165,3.6169,0,0,0,0,0,0,3.5554,3.5576,3.5601,3.5662,3.5684,3.5782,3.5769,3.5778,3.5811,3.5811,3.5872,3.588,3.5905,3.5976,3.5991,3.6019,3.5982,3.6157,3.6161,3.6164,3.6167,3.6171,3.6176,0,0,0,0,0,3.5547,3.5597,3.5602,3.562,3.5717,3.5784,3.5796,3.5825,3.5813,3.5839,3.5872,3.5878,3.6006,3.5983,3.5999,3.603,3.6156,3.616,3.6164,3.6165,3.6171,3.6175,0,0,0,0,0,0,3.5537,3.5605,3.5612,3.5683,3.5727,3.5787,3.582,3.5829,3.5878,3.5876,3.5908,3.5921,3.5986,3.6014,3.5987,3.6096,3.608,3.6087,3.6076,3.6081,3.6086,3.6078,3.5987,0,0,0,0,0,3.5543,3.5593,3.5649,3.5706,3.5729,3.577,3.5801,3.5819,3.5866,3.5885,3.5923,3.5968,3.6019,3.6051,3.61,3.617,3.6184,3.6199,3.6204,3.6207,3.6214,3.6254,3.6262,3.6178,3.6178,3.6178,0,0,3.5556,3.56,3.5629,3.5706,3.5742,3.5793,3.5786,3.5839,3.5877,3.5892,3.5958,3.5987,3.604,3.6108,3.6141,3.6134,3.6239,3.6212,3.6214,3.6219,3.6259,3.6266,3.6273,3.6181,3.618,3.618,0,0,3.5606,3.5644,3.5696,3.5733,3.5789,3.5817,3.5829,3.5888,3.5908,3.5974,3.5987,3.6032,3.6118,3.6155,3.6185,3.625,3.6257,3.6264,3.6288,3.6327,3.6333,3.634,3.6364,3.6372,3.627,3.627,3.627,0,3.5616,3.5693,3.5722,3.5775,3.5809,3.5826,3.5879,3.5913,3.5982,3.6005,3.5996,3.6106,3.6142,3.622,3.6236,3.6259,3.6275,3.6259,3.633,3.6337,3.6343,3.6366,3.6375,3.6271,3.6271,3.6271,3.6271,0,3.5702,3.5755,3.5791,3.5858,3.5896,3.5948,3.5985,3.6019,3.6034,3.6062,3.6129,3.6173,3.6232,3.6252,3.6266,3.6332,3.6327,3.6324,3.6309,3.6351,3.6374,3.6383,3.6272,3.6272,3.6272,3.6271,0,0,3.575,3.5833,3.5846,3.5877,3.594,3.5982,3.6035,3.6094,3.6123,3.6169,3.6216,3.6288,3.6286,3.632,3.6339,3.6372,3.6422,3.6366,3.6367,3.6376,3.65,3.6503,3.6513,3.6427,3.6429,3.643,3.6496,0,3.5809,3.5907,3.5934,3.6017,3.6067,3.6083,3.613,3.6173,3.6201,3.6247,3.6276,3.6328,3.6321,3.6342,3.6376,3.6409,3.6448,3.6404,3.6471,3.6473,3.6459,3.6525,3.6529,3.6589,3.6505,3.6507,3.6508,0,3.5891,3.5941,3.6029,3.6086,3.6108,3.615,3.6206,3.625,3.6299,3.6317,3.6355,3.6371,3.6427,3.6407,3.6486,3.6456,3.6484,3.6504,3.6507,3.6516,3.6494,3.6537,3.6609,3.6618,3.6522,3.6521,3.652,0,3.592,3.6008,3.6073,3.6099,3.6167,3.6196,3.6225,3.6273,3.6307,3.6356,3.6378,3.6432,3.6462,3.6504,3.6533,3.6516,3.6609,3.6592,3.6626,3.6626,3.6647,3.6645,3.6726,3.6662,3.6661,3.6661,3.6661,0,3.5984,3.6038,3.6087,3.6127,3.6187,3.6217,3.6276,3.6306,3.6349,3.6394,3.641,3.6452,3.6488,3.6535,3.6558,3.662,3.6633,3.6649,3.6655,3.6649,3.6647,3.6669,3.6667,3.6664,3.6663,3.6663,3.6662,0,3.6028,3.6062,3.6134,3.6193,3.6209,3.6251,3.6301,3.634,3.6367,3.6425,3.644,3.6484,3.654,3.6573,3.6643,3.6658,3.6728,3.6731,3.6712,3.6715,3.6748,3.6745,3.6847,3.6863,3.6786,3.6787,3.6787,0,3.6068,3.6109,3.6173,3.6205,3.6235,3.6287,3.6322,3.6353,3.6388,3.6448,3.648,3.6537,3.6585,3.6673,3.6711,3.6765,3.6771,3.6802,3.6779,3.6772,3.6774,3.6772,3.6777,3.6807,3.6808,3.6808,3.6809,0,3.6135,3.6151,3.6201,3.6257,3.6299,3.6344,3.6389,3.6415,3.6453,3.6492,3.655,3.6587,3.666,3.6717,3.6774,3.6804,3.6813,3.6816,3.6827,3.6822,3.6811,3.6819,3.6725,3.6814,3.6813,3.6813,3.6813,3.6812,3.618,3.6218,3.6269,3.6325,3.6362,3.6404,3.6444,3.6477,3.6527,3.6589,3.6604,3.6665,3.6713,3.6791,3.6822,3.6871,3.6865,3.6881,3.6885,3.6889,3.6891,3.6801,3.6881,3.6881,3.688,3.688,3.688,0,3.625,3.6284,3.6335,3.6398,3.6442,3.6447,3.6497,3.6533,3.6587,3.6632,3.6679,3.6746,3.6801,3.6843,3.6899,3.693,3.6936,3.6944,3.6943,3.695,3.6892,3.6878,3.6938,3.6938,3.6938,3.6938,3.6938,3.6938,3.6292,3.6358,3.6379,3.6464,3.6497,3.6558,3.6587,3.6625,3.6661,3.6736,3.6782,3.6809,3.6853,3.6913,3.6963,3.6974,3.6995,3.7003,3.7015,3.696,3.6954,3.6948,3.6935,3.7007,3.7007,3.7069,3.707,3.707]}]]